Time,TemperatureF,DewpointF,PressureIn,WindDirection,WindDirectionDegrees,WindSpeedMPH,WindSpeedGustMPH,Humidity,HourlyPrecipIn,Conditions,Clouds,dailyrainin,SoftwareType,DateUTC
2013-02-20 00:00:00,19.9,12.7,29.86,West,276,12.0,26.0,73,0.00,,---,0.00,VWS V13.01,2013-02-20 05:00:00,
2013-02-20 00:30:00,19.9,13.0,29.87,WNW,299,13.0,21.0,74,0.00,,---,0.00,VWS V13.01,2013-02-20 05:30:00,
2013-02-20 01:00:00,19.7,13.1,29.87,WNW,288,10.0,20.0,75,0.00,,---,0.00,VWS V13.01,2013-02-20 06:00:00,
2013-02-20 01:30:00,19.4,13.1,29.88,WNW,294,5.0,20.0,76,0.00,,---,0.00,VWS V13.01,2013-02-20 06:30:00,
2013-02-20 02:00:00,19.6,13.0,29.89,West,275,12.0,22.0,75,0.00,,---,0.00,VWS V13.01,2013-02-20 07:00:00,
2013-02-20 02:30:00,19.7,12.8,29.90,West,262,10.0,23.0,74,0.00,,---,0.00,VWS V13.01,2013-02-20 07:30:00,
2013-02-20 03:00:00,19.5,12.6,29.90,WNW,290,6.0,24.0,74,0.00,,---,0.00,VWS V13.01,2013-02-20 08:00:00,
2013-02-20 03:30:00,19.1,13.7,29.91,SW,223,5.0,19.0,79,0.00,,---,0.00,VWS V13.01,2013-02-20 08:30:00,
2013-02-20 04:00:00,18.9,14.0,29.92,WNW,303,17.0,21.0,81,0.00,,---,0.00,VWS V13.01,2013-02-20 09:00:00,
2013-02-20 04:30:00,19.0,11.2,29.92,WNW,287,12.0,25.0,71,0.00,,---,0.00,VWS V13.01,2013-02-20 09:30:00,
2013-02-20 05:00:00,18.3,11.4,29.95,NW,311,12.0,26.0,74,0.00,,---,0.00,VWS V13.01,2013-02-20 10:00:00,
2013-02-20 05:30:00,17.9,10.4,29.96,West,275,7.0,21.0,72,0.00,,---,0.00,VWS V13.01,2013-02-20 10:30:00,
2013-02-20 06:00:00,17.9,9.5,29.97,WNW,282,2.0,21.0,69,0.00,,---,0.00,VWS V13.01,2013-02-20 11:00:00,
2013-02-20 06:30:00,18.1,10.3,29.98,West,281,7.0,18.0,71,0.00,,---,0.00,VWS V13.01,2013-02-20 11:30:00,
2013-02-20 07:00:00,18.3,10.8,29.99,NW,313,13.0,20.0,72,0.00,,---,0.00,VWS V13.01,2013-02-20 12:00:00,
2013-02-20 07:30:00,18.3,10.2,30.00,NNW,329,7.0,25.0,70,0.00,,---,0.00,VWS V13.01,2013-02-20 12:30:00,
2013-02-20 08:00:00,18.4,10.6,30.01,NNW,342,7.0,25.0,71,0.00,,---,0.00,VWS V13.01,2013-02-20 13:00:00,
2013-02-20 08:30:00,18.3,10.2,30.02,West,269,3.0,25.0,70,0.00,,---,0.00,VWS V13.01,2013-02-20 13:30:00,
2013-02-20 09:00:00,18.8,11.0,30.02,WNW,300,9.0,24.0,71,0.00,,---,0.00,VWS V13.01,2013-02-20 14:00:00,
2013-02-20 09:30:00,19.1,11.3,30.03,WNW,302,1.0,22.0,71,0.00,,---,0.00,VWS V13.01,2013-02-20 14:30:00,
2013-02-20 10:00:00,19.5,11.6,30.03,NW,326,9.0,24.0,71,0.00,,---,0.00,VWS V13.01,2013-02-20 15:00:00,
2013-02-20 10:30:00,19.7,11.5,30.05,NW,311,6.0,19.0,70,0.00,,---,0.00,VWS V13.01,2013-02-20 15:30:00,
2013-02-20 11:00:00,20.2,11.4,30.05,NW,309,10.0,22.0,68,0.00,,---,0.00,VWS V13.01,2013-02-20 16:00:00,
2013-02-20 11:30:00,20.6,11.1,30.06,NNW,327,10.0,25.0,66,0.00,,---,0.00,VWS V13.01,2013-02-20 16:30:00,
2013-02-20 12:00:00,20.9,11.7,30.07,West,270,10.0,23.0,67,0.00,,---,0.00,VWS V13.01,2013-02-20 17:00:00,
2013-02-20 12:30:00,21.3,13.1,30.07,West,271,13.0,26.0,70,0.00,,---,0.00,VWS V13.01,2013-02-20 17:30:00,
2013-02-20 13:00:00,21.6,12.0,30.08,NW,322,9.0,21.0,66,0.00,,---,0.00,VWS V13.01,2013-02-20 18:00:00,
2013-02-20 13:30:00,22.0,11.7,30.09,NE,44,2.0,19.0,64,0.00,,---,0.00,VWS V13.01,2013-02-20 18:30:00,
2013-02-20 14:00:00,22.5,12.2,30.09,WNW,294,11.0,20.0,64,0.00,,---,0.00,VWS V13.01,2013-02-20 19:00:00,
2013-02-20 14:30:00,22.7,12.4,30.10,NW,319,9.0,19.0,64,0.00,,---,0.00,VWS V13.01,2013-02-20 19:30:00,
2013-02-20 15:00:00,22.9,12.6,30.10,NNW,333,13.0,20.0,64,0.00,,---,0.00,VWS V13.01,2013-02-20 20:00:00,
2013-02-20 15:30:00,23.1,13.4,30.10,NW,315,4.0,18.0,66,0.00,,---,0.00,VWS V13.01,2013-02-20 20:30:00,
2013-02-20 16:00:00,23.1,13.1,30.12,WNW,301,5.0,22.0,65,0.00,,---,0.00,VWS V13.01,2013-02-20 21:00:00,
2013-02-20 16:30:00,23.3,13.3,30.14,NW,326,6.0,17.0,65,0.00,,---,0.00,VWS V13.01,2013-02-20 21:30:00,
2013-02-20 17:00:00,23.4,13.7,30.16,WNW,303,7.0,19.0,66,0.00,,---,0.00,VWS V13.01,2013-02-20 22:00:00,
2013-02-20 17:30:00,23.4,14.1,30.16,NNW,329,7.0,18.0,67,0.00,,---,0.00,VWS V13.01,2013-02-20 22:30:00,
2013-02-20 18:00:00,23.5,14.2,30.16,SSW,209,6.0,18.0,67,0.00,,---,0.00,VWS V13.01,2013-02-20 23:00:00,
2013-02-20 18:30:00,23.6,14.3,30.16,WNW,295,7.0,16.0,67,0.00,,---,0.00,VWS V13.01,2013-02-20 23:30:00,
2013-02-20 19:00:00,23.4,15.1,30.15,WNW,290,6.0,16.0,70,0.00,,---,0.00,VWS V13.01,2013-02-21 00:00:00,
2013-02-20 19:30:00,23.0,16.3,30.16,NNW,343,6.0,15.0,75,0.00,,---,0.00,VWS V13.01,2013-02-21 00:30:00,
2013-02-20 20:00:00,22.9,15.6,30.16,WNW,300,9.0,16.0,73,0.00,,---,0.00,VWS V13.01,2013-02-21 01:00:00,
2013-02-20 20:30:00,22.7,14.1,30.17,North,355,12.0,23.0,69,0.00,,---,0.00,VWS V13.01,2013-02-21 01:30:00,
2013-02-20 21:00:00,22.5,13.9,30.17,NW,326,11.0,19.0,69,0.00,,---,0.00,VWS V13.01,2013-02-21 02:00:00,
2013-02-20 21:30:00,22.4,13.8,30.17,NNW,327,14.0,19.0,69,0.00,,---,0.00,VWS V13.01,2013-02-21 02:30:00,
2013-02-20 22:00:00,22.2,14.2,30.18,North,355,8.0,20.0,71,0.00,,---,0.00,VWS V13.01,2013-02-21 03:00:00,
2013-02-20 22:30:00,22.0,14.4,30.18,NNE,25,4.0,17.0,72,0.00,,---,0.00,VWS V13.01,2013-02-21 03:30:00,
2013-02-20 23:00:00,21.9,14.9,30.18,NNW,336,5.0,18.0,74,0.00,,---,0.00,VWS V13.01,2013-02-21 04:00:00,
2013-02-20 23:30:00,21.6,14.9,30.19,WNW,287,16.0,19.0,75,0.00,,---,0.00,VWS V13.01,2013-02-21 04:30:00,